User: anonymous   Login
Location: Unspecified
(0.0000°N, 0.0000°E)
Time: 19:08:46
(UTC+00:00)
Language:

ONEWEB-0333 - Orbit

View from above orbital plane
View from above orbital plane
View from above satellite
View from above satellite

Ground track
Ground track

The orbit is defined by the following mean orbital elements,

1 49199U          26145.43922662 +.00000000 +00000-0 -53672-3 0 00004
2 49199  87.8941 324.7677 0001833  90.2433 269.8906 13.13467996    02
Epoch (UTC): 25 May 2026 10:32:29
Eccentricity: 0.0001833
inclination: 87.8941°
perigee height: 1208 km
apogee height: 1211 km
right ascension of ascending node: 324.7677°
argument of perigee: 90.2433°
revolutions per day: 13.13467996
mean anomaly at epoch: 269.8906°

The dashed part of the orbit path shows where the satellite is in the earth's shadow,  

DLR